Погода в Краснозаводске

Россия / Московская область     56°26′21″N   38°14′42″E
темп.,
°C
ветер,
м/с
пор.,
м/с
влажн.,
%
обл.,
%
осадки,
мм/ч
давл.,
гПа
погр.,
м
9 мая, вс
вс900:00+7зсз2599100 3.0 1002238
03:00+5сз41097100 3.3 1003608
06:00+4сз51098100 1.5 1005636
09:00+3ссз61298100 1.9 1008766
12:00+3ссз51397100 0.5 1011846
15:00+8с61278100 1.1 10131528
18:00+9ссз51165100 0.1 10151594
21:00+4сз277781 0.2 1018128
10 мая, пн
пн1000:00+2сз311844 0.0 1021276
03:00+1сз310830 0.0 1024209
06:00+2ссз28760 0.0 1026211
09:00+8с36510 0.0 1027958
12:00+11с45410 0.0 10281504
15:00+13с34400 0.0 10271553
18:00+12ссв35520 0.0 1028837
21:00+6в22750 0.0 102912
11 мая, вт
вт1100:00+4всв22760 0.0 102912
03:00+3ссв23795 0.0 103037
06:00+5всв27765 0.0 1031159
09:00+11всв47544 0.0 1030601
12:00+16всв464370 0.0 1029949
15:00+18всв45465 0.0 1028954
18:00+16всв36610 0.0 1028669
21:00+11всв36870 0.0 1028104
12 мая, ср
ср1200:00+9в38910 0.0 1028127
03:00+9в399553 0.0 1027162
06:00+11всв412894 0.0 1026296
09:00+17в612705 0.0 1025811
12:00+17вюв5107168 0.0 10251244
15:00+18вюв597343 0.7 10241326
18:00+16вюв51187100 1.4 1024721
21:00+14вюв4129099 1.5 1024535
13 мая, чт
чт1300:00+13вюв31094100 0.0 1023338
03:00+13вюв41094100 0.1 1022457
06:00+12юв4119567 0.1 1022508
09:00+15юв5987100 0.4 1022723
12:00+17юв487441 0.3 10211028
15:00+19ююв486757 1.1 10201295
18:00+18ю258048 0.9 1019317
21:00+14юв229410 1.2 101938